TimeCDT,TemperatureF,Dew PointF,Humidity,Sea Level PressureIn,VisibilityMPH,Wind Direction,Wind SpeedMPH,Gust SpeedMPH,PrecipitationIn,Events,Conditions,WindDirDegrees,DateUTC
12:15 AM,41.0,32.0,70,30.05,10.0,NNW,9.2,-,N/A,,Clear,330,2013-03-11 05:15:00
12:35 AM,39.2,32.0,75,30.05,10.0,North,10.4,-,N/A,,Clear,350,2013-03-11 05:35:00
12:55 AM,39.2,30.2,70,30.06,10.0,NNW,10.4,-,N/A,,Clear,330,2013-03-11 05:55:00
1:15 AM,39.2,30.2,70,30.07,10.0,NNW,8.1,-,N/A,,Clear,340,2013-03-11 06:15:00
1:35 AM,37.4,30.2,75,30.07,10.0,North,6.9,-,N/A,,Clear,360,2013-03-11 06:35:00
2:15 AM,35.6,30.2,81,30.08,10.0,North,3.5,-,N/A,,Clear,350,2013-03-11 07:15:00
2:35 AM,35.6,30.2,81,30.09,10.0,Calm,Calm,-,N/A,,Clear,0,2013-03-11 07:35:00
2:55 AM,35.6,30.2,81,30.09,10.0,Calm,Calm,-,N/A,,Clear,0,2013-03-11 07:55:00
3:15 AM,35.6,30.2,81,30.09,10.0,Calm,Calm,-,N/A,,Clear,0,2013-03-11 08:15:00
3:35 AM,35.6,28.4,75,30.08,10.0,Calm,Calm,-,N/A,,Clear,0,2013-03-11 08:35:00
3:55 AM,35.6,28.4,75,30.08,10.0,WSW,3.5,-,N/A,,Clear,240,2013-03-11 08:55:00
4:15 AM,35.6,30.2,81,30.08,10.0,WSW,4.6,-,N/A,,Clear,250,2013-03-11 09:15:00
4:35 AM,35.6,30.2,81,30.07,10.0,WSW,4.6,-,N/A,,Clear,250,2013-03-11 09:35:00
4:55 AM,33.8,30.2,87,30.07,10.0,West,3.5,-,N/A,,Clear,270,2013-03-11 09:55:00
5:15 AM,35.6,30.2,81,30.07,10.0,WSW,4.6,-,N/A,,Clear,250,2013-03-11 10:15:00
5:35 AM,33.8,30.2,87,30.06,10.0,WSW,4.6,-,N/A,,Clear,250,2013-03-11 10:35:00
5:55 AM,35.6,30.2,81,30.06,10.0,WSW,5.8,-,N/A,,Clear,250,2013-03-11 10:55:00
6:15 AM,35.6,30.2,81,30.07,10.0,West,5.8,-,N/A,,Clear,270,2013-03-11 11:15:00
6:35 AM,33.8,30.2,87,30.07,10.0,West,6.9,-,N/A,,Clear,270,2013-03-11 11:35:00
6:55 AM,33.8,30.2,87,30.07,10.0,West,5.8,-,N/A,,Clear,270,2013-03-11 11:55:00
7:15 AM,33.8,30.2,87,30.07,10.0,West,5.8,-,N/A,,Clear,270,2013-03-11 12:15:00
7:35 AM,33.8,30.2,87,30.07,10.0,West,4.6,-,N/A,,Clear,280,2013-03-11 12:35:00
7:55 AM,33.8,30.2,87,30.08,10.0,West,4.6,-,N/A,,Clear,270,2013-03-11 12:55:00
8:15 AM,33.8,30.2,87,30.08,10.0,West,5.8,-,N/A,,Clear,270,2013-03-11 13:15:00
8:35 AM,35.6,30.2,81,30.09,10.0,West,6.9,-,N/A,,Clear,280,2013-03-11 13:35:00
8:55 AM,37.4,32.0,81,30.09,10.0,West,10.4,-,N/A,,Clear,280,2013-03-11 13:55:00
9:15 AM,37.4,30.2,75,30.09,10.0,WNW,10.4,-,N/A,,Clear,300,2013-03-11 14:15:00
9:35 AM,39.2,30.2,70,30.09,10.0,WNW,11.5,-,N/A,,Clear,300,2013-03-11 14:35:00
9:55 AM,41.0,30.2,65,30.10,10.0,WNW,11.5,-,N/A,,Clear,300,2013-03-11 14:55:00
10:15 AM,41.0,28.4,61,30.10,10.0,WNW,8.1,16.1,N/A,,Clear,300,2013-03-11 15:15:00
10:35 AM,42.8,30.2,61,30.10,10.0,NW,9.2,-,N/A,,Clear,310,2013-03-11 15:35:00
10:55 AM,42.8,28.4,57,30.11,10.0,NW,10.4,-,N/A,,Clear,310,2013-03-11 15:55:00
11:15 AM,44.6,28.4,53,30.11,10.0,NW,11.5,19.6,N/A,,Clear,320,2013-03-11 16:15:00
11:35 AM,44.6,26.6,49,30.11,10.0,WNW,12.7,16.1,N/A,,Clear,300,2013-03-11 16:35:00
11:55 AM,44.6,26.6,49,30.11,10.0,West,10.4,18.4,N/A,,Clear,280,2013-03-11 16:55:00
12:15 PM,46.4,26.6,46,30.11,10.0,WNW,12.7,19.6,N/A,,Clear,290,2013-03-11 17:15:00
12:35 PM,46.4,24.8,43,30.11,10.0,WNW,11.5,17.3,N/A,,Clear,300,2013-03-11 17:35:00
12:55 PM,46.4,26.6,46,30.10,10.0,West,11.5,-,N/A,,Clear,270,2013-03-11 17:55:00
1:15 PM,46.4,24.8,43,30.09,10.0,West,13.8,-,N/A,,Clear,280,2013-03-11 18:15:00
1:35 PM,48.2,24.8,40,30.09,10.0,West,10.4,19.6,N/A,,Clear,280,2013-03-11 18:35:00
1:55 PM,50.0,23.0,35,30.08,10.0,West,11.5,-,N/A,,Clear,280,2013-03-11 18:55:00
2:15 PM,50.0,21.2,32,30.07,10.0,NW,15.0,19.6,N/A,,Clear,320,2013-03-11 19:15:00
2:35 PM,51.8,21.2,30,30.06,10.0,WNW,9.2,18.4,N/A,,Clear,300,2013-03-11 19:35:00
2:55 PM,51.8,21.2,30,30.05,10.0,WNW,10.4,18.4,N/A,,Clear,300,2013-03-11 19:55:00
3:15 PM,51.8,21.2,30,30.04,10.0,WNW,5.8,18.4,N/A,,Clear,300,2013-03-11 20:15:00
3:35 PM,53.6,21.2,28,30.04,10.0,WNW,9.2,19.6,N/A,,Clear,290,2013-03-11 20:35:00
3:55 PM,53.6,21.2,28,30.04,10.0,West,10.4,-,N/A,,Clear,280,2013-03-11 20:55:00
4:15 PM,53.6,21.2,28,30.03,10.0,WNW,10.4,17.3,N/A,,Clear,300,2013-03-11 21:15:00
4:35 PM,53.6,21.2,28,30.03,10.0,WNW,13.8,17.3,N/A,,Clear,300,2013-03-11 21:35:00
4:55 PM,53.6,19.4,26,30.02,10.0,WNW,15.0,18.4,N/A,,Clear,300,2013-03-11 21:55:00
5:15 PM,55.4,19.4,25,30.01,10.0,WNW,11.5,-,N/A,,Clear,290,2013-03-11 22:15:00
5:35 PM,55.4,19.4,25,30.01,10.0,NNW,10.4,16.1,N/A,,Clear,340,2013-03-11 22:35:00
5:55 PM,55.4,19.4,25,30.01,10.0,NW,8.1,-,N/A,,Clear,310,2013-03-11 22:55:00
6:15 PM,55.4,19.4,25,30.01,10.0,North,6.9,-,N/A,,Clear,350,2013-03-11 23:15:00
6:35 PM,55.4,17.6,23,30.01,10.0,NW,6.9,-,N/A,,Clear,320,2013-03-11 23:35:00
6:55 PM,53.6,19.4,26,30.02,10.0,NNW,4.6,-,N/A,,Clear,340,2013-03-11 23:55:00
7:15 PM,53.6,19.4,26,30.02,10.0,North,4.6,-,N/A,,Clear,350,2013-03-12 00:15:00
7:35 PM,51.8,21.2,30,30.02,10.0,Calm,Calm,-,N/A,,Clear,0,2013-03-12 00:35:00
7:55 PM,46.4,24.8,43,30.02,10.0,Calm,Calm,-,N/A,,Clear,0,2013-03-12 00:55:00
8:15 PM,42.8,30.2,61,30.02,10.0,Calm,Calm,-,N/A,,Clear,0,2013-03-12 01:15:00
8:35 PM,44.6,26.6,49,30.03,10.0,Calm,Calm,-,N/A,,Clear,0,2013-03-12 01:35:00
8:55 PM,42.8,32.0,66,30.03,10.0,Calm,Calm,-,N/A,,Clear,0,2013-03-12 01:55:00
9:15 PM,41.0,32.0,70,30.04,10.0,Calm,Calm,-,N/A,,Clear,0,2013-03-12 02:15:00
9:35 PM,41.0,32.0,70,30.04,10.0,Calm,Calm,-,N/A,,Clear,0,2013-03-12 02:35:00
9:55 PM,41.0,32.0,70,30.05,10.0,Calm,Calm,-,N/A,,Clear,0,2013-03-12 02:55:00
10:15 PM,37.4,30.2,75,30.06,10.0,Calm,Calm,-,N/A,,Clear,0,2013-03-12 03:15:00
10:35 PM,37.4,32.0,81,30.06,10.0,Calm,Calm,-,N/A,,Clear,0,2013-03-12 03:35:00
11:15 PM,35.6,30.2,81,30.07,10.0,Calm,Calm,-,N/A,,Clear,0,2013-03-12 04:15:00
11:35 PM,35.6,30.2,81,30.07,10.0,Calm,Calm,-,N/A,,Clear,0,2013-03-12 04:35:00
11:55 PM,35.6,28.4,75,30.07,10.0,Calm,Calm,-,N/A,,Clear,0,2013-03-12 04:55:00